Location: Unspecified
(0.0000°N, 0.0000°E)
Time: 02:47:18
(UTC+00:00)

Vanguard 2 Rocket - Visible Passes

Search period start: 25 October 2014 00:00
Search period end: 04 November 2014 00:00
Orbit: 554 x 3335 km, 32.9° (Epoch: 24 October)

Date Brightness Start Highest point End Pass type
(mag) Time Alt. Az. Time Alt. Az. Time Alt. Az.
25 Oct 8.8 19:24:38 10° SSW 19:32:19 22° SSE 19:34:15 20° SE visible
26 Oct 9.4 18:24:17 10° SSW 18:32:25 19° SSE 18:38:14 10° ESE visible
26 Oct 8.9 20:40:15 10° SW 20:45:13 30° SSW 20:45:13 30° SSW visible
27 Oct 8.2 19:40:07 10° SW 19:49:52 38° SSE 19:50:17 38° SSE visible
28 Oct 8.9 18:39:41 10° SSW 18:50:19 30° SSE 18:55:23 17° ESE visible
28 Oct 9.0 20:56:43 10° WSW 21:01:18 29° WSW 21:01:18 29° WSW visible
29 Oct 7.6 19:56:09 10° SW 20:06:24 65° S 20:06:24 65° S visible
30 Oct 9.7 05:07:19 10° NNE 05:09:37 11° NE 05:12:14 10° NE visible
30 Oct 8.2 18:55:25 10° SW 19:07:47 47° SSE 19:11:31 30° E visible
30 Oct 9.4 21:13:59 10° WSW 21:17:26 21° W 21:17:26 21° W visible
31 Oct 9.2 17:54:30 10° SW 18:07:58 37° SSE 18:16:08 10° E visible
31 Oct 7.8 20:12:46 10° WSW 20:22:34 64° W 20:22:34 64° W visible
01 Nov 7.8 19:11:36 10° SW 19:24:48 77° SSE 19:27:42 46° ENE visible
01 Nov 9.9 21:32:22 10° W 21:33:37 13° W 21:33:37 13° W visible
02 Nov 8.7 18:10:24 10° SW 18:25:20 57° SSE 18:32:50 15° ENE visible
02 Nov 8.6 20:30:10 10° WSW 20:38:46 38° WNW 20:38:46 38° WNW visible
03 Nov 7.9 19:28:21 10° WSW 19:41:21 67° NW 19:43:54 47° NNE visible
